This is the latest recevied weather packets stored in our database for station/object K0WXC-1. If no packets are shown the sender has not sent any weather packets the latest 10 day(s).
| Time | Temp. | Humidity | Pressure | Rain* | Wind** | Luminosity | Snow |
|---|---|---|---|---|---|---|---|
| 1777478128 | 11.67° C | 59% | 1006.4 hPa | 0 mm | 1.79 m/s, 308° | - | - |
| 1777478068 | 11.67° C | 59% | 1006.4 hPa | 0 mm | 1.79 m/s, 308° | - | - |
| 1777478008 | 11.67° C | 59% | 1006.4 hPa | 0 mm | 1.79 m/s, 308° | - | - |
| 1777477948 | 11.67° C | 59% | 1006.4 hPa | 0 mm | 1.79 m/s, 308° | - | - |
| 1777477888 | 11.67° C | 59% | 1006.4 hPa | 0 mm | 1.79 m/s, 308° | - | - |
| 1777477828 | 12.22° C | 58% | 1006.6 hPa | 0 mm | 4.02 m/s, 347° | - | - |
| 1777477768 | 12.22° C | 58% | 1006.6 hPa | 0 mm | 4.02 m/s, 347° | - | - |
| 1777477708 | 12.22° C | 58% | 1006.6 hPa | 0 mm | 4.02 m/s, 347° | - | - |
| 1777477648 | 12.22° C | 58% | 1006.6 hPa | 0 mm | 4.02 m/s, 347° | - | - |
| 1777477588 | 12.22° C | 58% | 1006.6 hPa | 0 mm | 4.02 m/s, 347° | - | - |
| 1777477528 | 11.67° C | 57% | 1006.5 hPa | 0 mm | 2.24 m/s, 282° | - | - |
| 1777477468 | 11.67° C | 57% | 1006.5 hPa | 0 mm | 2.24 m/s, 282° | - | - |
| 1777477408 | 11.67° C | 57% | 1006.5 hPa | 0 mm | 2.24 m/s, 282° | - | - |
| 1777477348 | 11.67° C | 57% | 1006.5 hPa | 0 mm | 2.24 m/s, 282° | - | - |
| 1777477295 | 11.67° C | 57% | 1006.5 hPa | 0 mm | 2.24 m/s, 282° | - | - |
| 1777477168 | 11.67° C | 58% | 1006.7 hPa | 0 mm | 2.68 m/s, 17° | - | - |
| 1777477108 | 11.67° C | 58% | 1006.7 hPa | 0 mm | 2.68 m/s, 17° | - | - |
| 1777477048 | 11.67° C | 58% | 1006.7 hPa | 0 mm | 2.68 m/s, 17° | - | - |
| 1777476988 | 11.67° C | 58% | 1006.7 hPa | 0 mm | 2.68 m/s, 17° | - | - |
| 1777476928 | 11.11° C | 60% | 1006.6 hPa | 0 mm | 0.89 m/s, 320° | - | - |
| 1777476868 | 11.11° C | 60% | 1006.6 hPa | 0 mm | 0.89 m/s, 320° | - | - |
| 1777476808 | 11.11° C | 60% | 1006.6 hPa | 0 mm | 0.89 m/s, 320° | - | - |
| 1777476748 | 11.11° C | 60% | 1006.6 hPa | 0 mm | 0.89 m/s, 320° | - | - |
| 1777476688 | 11.11° C | 60% | 1006.6 hPa | 0 mm | 0.89 m/s, 320° | - | - |
| 1777476628 | 12.22° C | 58% | 1006.9 hPa | 0 mm | 1.79 m/s, 253° | - | - |
* Rain latest hour (hover to see other rain measurements)
** Current wind speed in m/s (hover to see current wind gust speed)